University Park, PA

1:52 PM EDT on September 28, 2016 (GMT -0400)
University Park

Weather History for KUNV - December, 2013

Change the Weather History Date:

Saturday, December 21, 2013

  Actual Average Record
Temperature  
Mean Temperature 47 °F -  
Max Temperature 53 °F 36 °F 61 °F (1988)
Min Temperature 41 °F 22 °F -6 °F (1942)
Degree Days  
Heating Degree Days 18    
Moisture  
Dew Point 47 °F    
Average Humidity 92    
Maximum Humidity 100    
Minimum Humidity 82    
Precipitation  
Precipitation 0.03 in - - ()
Sea Level Pressure  
Sea Level Pressure 29.88 in    
Wind  
Wind Speed 5 mph (West)    
Max Wind Speed 9 mph    
Max Gust Speed -    
Visibility 8 miles    
Events Fog , Rain    
Averages and records for this station are not official NWS values.
T = Trace of Precipitation, MM = Missing Value Source: NWS Daily Summary

Daily Weather History Graph

Daily Weather History Graph

Search for Another Location

Airport or City:

Trip Planner

Search our weather history database for the weather conditions in past years. The results will help you decide how hot, cold, wet, or windy it might be!

Date:

Astronomy

Dec. 21, 2013 Rise Set
Actual Time 7:32 AM EST 4:46 PM EST
Civil Twilight 7:01 AM EST 5:17 PM EST
Nautical Twilight 6:26 AM EST 5:52 PM EST
Astronomical Twilight 5:53 AM EST 6:25 PM EST
Moon 9:02 PM EST (12/21) 9:56 AM EST (12/21)
Length of Visible Light 10h 16m
Length of Day
9h 14m
Waning Gibbous, 84% of the Moon is Illuminated
Dec 21
Waning Gibbous
Dec 25
Last Quarter
Jan 1
New
Jan 7
First Quarter
Jan 15
Full

Hourly Weather History & Observations

Time (EST) Temp. Windchill Dew Point Humidity Pressure Visibility Wind Dir Wind Speed Gust Speed Precip Events Conditions
12:15 AM 48.6 °F - 43.7 °F 83% 29.91 in 10.0 mi WSW 5.8 mph - N/A   Overcast
12:35 AM 48.2 °F - 43.9 °F 85% 29.91 in 10.0 mi West 5.8 mph - N/A   Overcast
12:55 AM 47.5 °F - 43.2 °F 85% 29.91 in 10.0 mi West 8.1 mph - N/A   Overcast
1:15 AM 48.4 °F - 44.1 °F 85% 29.91 in 10.0 mi West 8.1 mph - N/A   Overcast
1:35 AM 49.3 °F - 44.8 °F 84% 29.91 in 10.0 mi West 4.6 mph - N/A   Overcast
1:55 AM 49.5 °F - 45.1 °F 85% 29.90 in 10.0 mi WSW 5.8 mph - N/A   Overcast
2:15 AM 49.6 °F - 45.1 °F 84% 29.91 in 10.0 mi West 5.8 mph - N/A   Overcast
2:35 AM 50.5 °F - 45.1 °F 82% 29.90 in 10.0 mi West 4.6 mph - N/A   Overcast
2:55 AM 48.4 °F - 44.6 °F 87% 29.91 in 10.0 mi West 6.9 mph - N/A   Mostly Cloudy
3:15 AM 50.0 °F - 44.8 °F 82% 29.90 in 10.0 mi West 5.8 mph - N/A   Mostly Cloudy
3:35 AM 48.2 °F - 45.5 °F 90% 29.90 in 10.0 mi West 6.9 mph - N/A   Mostly Cloudy
3:55 AM 49.1 °F - 45.0 °F 86% 29.90 in 10.0 mi West 5.8 mph - N/A   Overcast
4:15 AM 48.6 °F - 44.1 °F 84% 29.90 in 10.0 mi West 8.1 mph - N/A   Mostly Cloudy
4:35 AM 49.5 °F - 44.8 °F 84% 29.90 in 10.0 mi WSW 8.1 mph - N/A   Mostly Cloudy
4:55 AM 49.1 °F - 44.8 °F 85% 29.89 in 10.0 mi WSW 5.8 mph - N/A   Mostly Cloudy
5:15 AM 49.8 °F - 45.3 °F 84% 29.88 in 10.0 mi WSW 3.5 mph - N/A   Scattered Clouds
5:35 AM 49.5 °F - 44.1 °F 82% 29.88 in 10.0 mi SW 3.5 mph - N/A   Clear
5:53 AM 50.0 °F - 46.4 °F 87% 29.87 in 7.0 mi West 5.8 mph - N/A   Clear
6:53 AM 48.2 °F - 42.8 °F 82% 29.92 in 7.0 mi Calm Calm - N/A   Overcast
7:25 AM 41.0 °F 39.0 °F 39.2 °F 93% 29.93 in 7.0 mi Variable 3.5 mph - N/A   Overcast
7:53 AM 41.0 °F - 39.2 °F 93% 29.94 in 7.0 mi Calm Calm - N/A   Overcast
8:53 AM 42.8 °F - 41.0 °F 93% 29.93 in 10.0 mi Calm Calm - N/A   Overcast
9:20 AM 44.6 °F - 42.8 °F 93% 29.93 in 3.0 mi Calm Calm - N/A   Overcast
9:53 AM 41.0 °F - 41.0 °F 100% 29.92 in 4.0 mi Calm Calm - N/A   Light Drizzle
10:53 AM 48.2 °F - 48.2 °F 100% 29.90 in 5.0 mi Calm Calm - N/A Rain Light Rain
11:13 AM 48.2 °F - 48.2 °F 100% 29.90 in 3.0 mi Calm Calm - N/A Rain Rain
11:25 AM 48.2 °F - 48.2 °F 100% 29.90 in 7.0 mi Calm Calm - N/A Rain Light Rain
11:53 AM 48.2 °F - 48.2 °F 100% 29.90 in 7.0 mi Calm Calm - N/A   Overcast
12:53 PM 50.0 °F - 50.0 °F 100% 29.88 in 5.0 mi Calm Calm - N/A Rain Light Rain
1:53 PM 51.8 °F - 51.8 °F 100% 29.87 in 5.0 mi Calm Calm - N/A Rain Light Rain
2:53 PM 51.8 °F - 51.8 °F 100% 29.85 in 7.0 mi Calm Calm - N/A Fog Patches of Fog
3:53 PM 51.8 °F - 50.0 °F 94% 29.87 in 4.0 mi West 5.8 mph - N/A Rain Light Rain
4:53 PM 51.8 °F - 51.8 °F 100% 29.85 in 3.0 mi Calm Calm - N/A Rain Rain
5:53 PM 51.8 °F - 51.8 °F 100% 29.84 in 7.0 mi WSW 8.1 mph - N/A   Light Drizzle
6:11 PM 53.6 °F - 53.6 °F 100% 29.84 in 10.0 mi West 8.1 mph - N/A   Overcast
6:53 PM 51.8 °F - 51.8 °F 100% 29.88 in 5.0 mi West 6.9 mph - N/A Rain Rain
7:53 PM 51.8 °F - 51.8 °F 100% 29.86 in 10.0 mi WNW 4.6 mph - N/A   Overcast
8:53 PM 53.6 °F - 51.8 °F 94% 29.84 in 10.0 mi West 3.5 mph - N/A   Mostly Cloudy
9:55 PM 52.3 °F - 50.9 °F 95% 29.85 in 10.0 mi West 6.9 mph - N/A Rain Rain
10:15 PM 52.3 °F - 51.1 °F 95% 29.84 in 10.0 mi West 5.8 mph - 0.02 in Rain Rain
10:35 PM 52.2 °F - 51.1 °F 96% 29.84 in 10.0 mi West 9.2 mph - 0.03 in   Drizzle
10:55 PM 52.7 °F - 51.8 °F 97% 29.83 in 7.0 mi West 5.8 mph - N/A Rain Rain
11:15 PM 52.2 °F - 51.8 °F 99% 29.81 in 10.0 mi WNW 5.8 mph - N/A   Overcast
11:35 PM 52.3 °F - 51.8 °F 98% 29.80 in 10.0 mi West 6.9 mph - N/A   Scattered Clouds
11:55 PM 53.2 °F - 52.3 °F 97% 29.79 in 10.0 mi West 6.9 mph - N/A   Scattered Clouds